Location: Bonningues
(50.7927°N, 2.0150°E)
Time: 10:45:23
(UTC+00:00)

Cosmos 1818 - Pass Details

Date: 08 August 2020
Orbit: 776 x 797 km, 65.0° (Epoch: 20 September)

Event Time Altitude Azimuth Distance (km) Brightness Sun altitude
Rises 19:58:35 0° 319° (NW) 3,309 8.7 -5.5°
Reaches altitude 10° 20:01:01 10° 319° (NW) 2,377 7.6 -5.8°
Maximum altitude 20:06:30 87° 50° (NE) 805 3.6 -6.5°
Drops below altitude 10° 20:11:58 10° 140° (SE) 2,363 5.4 -7.2°
Enters shadow 20:12:25 - 140° (SE) 2,532 5.6 -7.3°
